Weather History for Ukiah, CA

Change the Weather History Date:

Monday, March 3, 2014

  Actual Average Record
Temperature  
Mean Temperature 53 °F 51 °F  
Max Temperature 54 °F 63 °F 85 °F (1929)
Min Temperature 52 °F 40 °F 26 °F (1966)
Degree Days  
Heating Degree Days 12 14  
Month to date heating degree days 30 42  
Since 1 July heating degree days 2037 2275  
Cooling Degree Days 0 0  
Month to date cooling degree days 0 0  
Year to date cooling degree days 0 0  
Growing Degree Days 2 (Base 50)    
Moisture  
Dew Point 50 °F    
Average Humidity 90    
Maximum Humidity 96    
Minimum Humidity 83    
Precipitation  
Precipitation 1.65 in 0.23 in 1.93 in (1991)
Month to date precipitation 1.72 0.75  
Year to date precipitation 10.89 14.30  
Since 1 July precipitation 12.81 28.27  
Snow  
Snow 0.00 in - - ()
Month to date snowfall 0.0  
Since 1 July snowfall 0.0  
Snow Depth 0.00 in    
Sea Level Pressure  
Sea Level Pressure 30.06 in    
Wind  
Wind Speed 9 mph (SSE)    
Max Wind Speed 16 mph    
Max Gust Speed 21 mph    
Visibility 5 miles    
Events Rain    
T = Trace of Precipitation, MM = Missing Value Source: NWS Daily Summary

Daily Weather History Graph

Daily Weather History Graph

Search for Another Location

Airport:

Trip Planner

Search our weather history database for the weather conditions in past years. The results will help you decide how hot, cold, wet, or windy it might be!

Date:

Astronomy

Mar. 03, 2014 Rise Set
Actual Time 6:42 AM PST 6:07 PM PST
Civil Twilight 6:15 AM PST 6:34 PM PST
Nautical Twilight 5:44 AM PST 7:05 PM PST
Astronomical Twilight 5:13 AM PST 7:36 PM PST
Moon 7:55 AM PST (3/3) 9:15 PM PST (3/3)
Length of Visible Light 12h 18m
Length of Day
11h 25m
Waxing Crescent, 8% of the Moon is Illuminated
Mar 3
Waxing Crescent
Mar 8
First Quarter
Mar 16
Full
Mar 23
Last Quarter
Mar 30
New

Hourly Weather History & Observations

Time (PST) Temp. Dew Point Humidity Pressure Visibility Wind Dir Wind Speed Gust Speed Precip Events Conditions
12:05 AM 53.1 °F 48.0 °F 83% 30.11 in 10.0 mi South 8.1 mph - N/A   Mostly Cloudy
12:56 AM 54.0 °F 48.9 °F 83% 30.10 in 10.0 mi SSE 6.9 mph - N/A   Overcast
1:56 AM 54.0 °F 48.9 °F 83% 30.09 in 10.0 mi SSE 8.1 mph - N/A   Overcast
2:56 AM 52.0 °F 50.0 °F 93% 30.07 in 5.0 mi SSE 10.4 mph - N/A   Overcast
3:01 AM 52.0 °F 50.0 °F 93% 30.09 in 5.0 mi SSE 10.4 mph - 0.00 in Rain Light Rain
3:42 AM 52.0 °F 50.0 °F 93% 30.08 in 5.0 mi SSE 10.4 mph - 0.07 in Rain Light Rain
3:56 AM 52.0 °F 50.0 °F 93% 30.07 in 4.0 mi SE 8.1 mph - 0.10 in Rain Rain
4:35 AM 52.0 °F 50.0 °F 93% 30.07 in 10.0 mi SSE 10.4 mph - 0.03 in Rain Light Rain
4:56 AM 52.0 °F 48.9 °F 89% 30.06 in 5.0 mi SSE 12.7 mph - 0.05 in Rain Light Rain
5:56 AM 52.0 °F 48.9 °F 89% 30.06 in 10.0 mi SSE 11.5 mph 18.4 mph 0.02 in   Overcast
6:56 AM 52.0 °F 48.9 °F 89% 30.05 in 10.0 mi SSE 13.8 mph 20.7 mph 0.00 in Rain Light Rain
7:56 AM 52.0 °F 48.9 °F 89% 30.07 in 6.0 mi SSE 11.5 mph - 0.07 in Rain Light Rain
8:03 AM 52.0 °F 48.9 °F 89% 30.08 in 4.0 mi SSE 9.2 mph - 0.01 in Rain Light Rain
8:10 AM 52.0 °F 50.0 °F 93% 30.08 in 4.0 mi SSE 8.1 mph - 0.01 in Rain Light Rain
8:56 AM 52.0 °F 48.9 °F 89% 30.08 in 2.5 mi SSE 10.4 mph - 0.05 in Rain Rain
9:06 AM 52.0 °F 48.9 °F 89% 30.09 in 1.8 mi SSE 10.4 mph - 0.04 in Rain Heavy Rain
9:34 AM 52.0 °F 50.0 °F 93% 30.10 in 3.0 mi SSE 6.9 mph - 0.17 in Rain Light Rain
9:46 AM 52.0 °F 50.0 °F 93% 30.09 in 2.5 mi SE 9.2 mph - 0.18 in Rain Light Rain
9:54 AM 51.8 °F 50.0 °F 94% 30.09 in 6.0 mi SE 8.1 mph - 0.18 in Rain Light Rain
9:56 AM 52.0 °F 50.0 °F 93% 30.08 in 8.0 mi SSE 8.1 mph - 0.18 in Rain Light Rain
10:06 AM 53.1 °F 50.0 °F 89% 30.09 in 10.0 mi SSE 6.9 mph - 0.00 in   Overcast
10:20 AM 53.1 °F 50.0 °F 89% 30.09 in 1.8 mi SSE 9.2 mph - 0.03 in Rain Heavy Rain
10:29 AM 53.1 °F 50.0 °F 89% 30.09 in 3.0 mi SSE 9.2 mph - 0.04 in Rain Light Rain
10:46 AM 53.1 °F 50.0 °F 89% 30.09 in 2.5 mi SSE 8.1 mph - 0.05 in Rain Light Rain
10:56 AM 53.1 °F 50.0 °F 89% 30.08 in 5.0 mi SSE 11.5 mph 18.4 mph 0.06 in Rain Light Rain
11:12 AM 53.1 °F 50.0 °F 89% 30.08 in 2.0 mi SSE 11.5 mph - 0.03 in Rain Rain
11:15 AM 53.1 °F 50.0 °F 89% 30.08 in 1.8 mi SSE 9.2 mph - 0.05 in Rain Rain
11:31 AM 53.1 °F 50.0 °F 89% 30.08 in 2.5 mi SSE 8.1 mph - 0.08 in Rain Light Rain
11:35 AM 53.1 °F 50.0 °F 89% 30.08 in 3.0 mi SSE 9.2 mph - 0.08 in Rain Light Rain
11:54 AM 53.6 °F 50.0 °F 88% 30.08 in 2.5 mi SSE 10.4 mph - 0.10 in Rain Rain
11:56 AM 53.1 °F 50.0 °F 89% 30.07 in 2.0 mi South 8.1 mph - 0.11 in Rain Rain
12:15 PM 53.1 °F 50.0 °F 89% 30.08 in 1.5 mi South 8.1 mph - 0.08 in Rain Rain
12:20 PM 53.1 °F 50.0 °F 89% 30.07 in 3.0 mi South 8.1 mph - 0.08 in Rain Light Rain
12:33 PM 53.1 °F 50.0 °F 89% 30.08 in 5.0 mi SSE 6.9 mph - 0.10 in Rain Rain
12:56 PM 53.1 °F 50.0 °F 89% 30.06 in 5.0 mi SSE 11.5 mph - 0.11 in Rain Light Rain
1:13 PM 53.1 °F 51.1 °F 93% 30.07 in 5.0 mi SSE 10.4 mph - 0.00 in Rain Light Rain
1:38 PM 54.0 °F 51.1 °F 90% 30.05 in 8.0 mi SSE 10.4 mph - 0.01 in Rain Light Rain
1:56 PM 53.1 °F 50.0 °F 89% 30.04 in 4.0 mi SSE 12.7 mph - 0.03 in Rain Rain
2:16 PM 53.1 °F 50.0 °F 89% 30.05 in 4.0 mi SSE 11.5 mph - 0.04 in Rain Rain
2:56 PM 53.1 °F 51.1 °F 93% 30.04 in 3.0 mi SSE 6.9 mph - 0.13 in Rain Rain
3:56 PM 53.1 °F 51.1 °F 93% 30.02 in 4.0 mi South 5.8 mph - 0.12 in Rain Rain
4:24 PM 53.1 °F 51.1 °F 93% 30.03 in 3.0 mi SSE 4.6 mph - 0.06 in Rain Rain
4:56 PM 53.1 °F 51.1 °F 93% 30.02 in 4.0 mi SSE 6.9 mph - 0.14 in Rain Rain
5:09 PM 53.1 °F 51.1 °F 93% 30.03 in 2.5 mi SSE 5.8 mph - 0.04 in Rain Rain
5:18 PM 53.1 °F 51.1 °F 93% 30.03 in 4.0 mi SSE 5.8 mph - 0.05 in Rain Light Rain
5:39 PM 53.1 °F 51.1 °F 93% 30.03 in 2.5 mi SSE 4.6 mph - 0.10 in Rain Rain
5:54 PM 53.6 °F 51.8 °F 94% 30.03 in 3.0 mi SSE 3.5 mph - 0.14 in Rain Rain
5:56 PM 53.1 °F 51.1 °F 93% 30.02 in 3.0 mi SSE 3.5 mph - 0.14 in Rain Rain
6:56 PM 53.1 °F 51.1 °F 93% 30.03 in 5.0 mi SSE 5.8 mph - 0.13 in Rain Rain
7:17 PM 53.1 °F 51.1 °F 93% 30.05 in 4.0 mi South 4.6 mph - 0.07 in Rain Rain
7:56 PM 53.1 °F 51.1 °F 93% 30.02 in 5.0 mi SSE 11.5 mph - 0.19 in Rain Light Rain
8:46 PM 54.0 °F 50.0 °F 86% 30.03 in 10.0 mi SSE 9.2 mph - 0.02 in   Overcast
8:56 PM 54.0 °F 50.0 °F 86% 30.01 in 10.0 mi South 10.4 mph 18.4 mph 0.02 in   Overcast
9:56 PM 54.0 °F 50.0 °F 86% 30.03 in 10.0 mi SSE 6.9 mph 17.3 mph N/A   Overcast
10:56 PM 53.1 °F 51.1 °F 93% 30.04 in 10.0 mi SSE 5.8 mph - N/A   Overcast
11:33 PM 53.1 °F 51.1 °F 93% 30.05 in 10.0 mi SSE 5.8 mph - N/A   Overcast
11:56 PM 53.1 °F 51.1 °F 93% 30.04 in 10.0 mi SSE 5.8 mph - N/A   Overcast